{"data":{"norad_id":68321,"intl_designator":"2026-059A","name":"STARLINK-36987","alt_names":[],"object_type":"PAYLOAD","status":"ACTIVE","operator":null,"country":"US","launch_date":"2026-03-22","launch_site_code":"AFETR","launch_vehicle":null,"mission":null,"orbit_class":"UNKNOWN","rcs_meters":null,"size_class":null,"mass_kg":null,"dimensions":null,"purposes":["comms"],"wikipedia_slug":null,"has_3d_model":false,"image_url":null,"decayed_at":null,"tle_current":{"epoch":"2026-09-20T03:36:08.913024Z","epoch_age_seconds":78469,"freshness":"FRESH","line1":"1 68321U 26059A   26263.15010316  .00015527  00000+0  46953-3 0  9997","line2":"2 68321  53.1597 163.2218 0001220  86.8223 273.2919 15.34412408 27979","mean_motion":15.34412408,"eccentricity":0.000122,"inclination_deg":53.1597,"raan_deg":163.2218,"arg_perigee_deg":86.8223,"mean_anomaly_deg":273.2919,"bstar":0.00046953,"rev_number":2797,"period_min":93.846999183025,"perigee_km":461.83178325468,"apogee_km":463.50093927483,"semimajor_km":6840.8033612648,"source":"CELESTRAK","updated_at":"2026-09-20T09:00:43.882424Z"}}}